Time,TemperatureF,DewpointF,PressureIn,WindDirection,WindDirectionDegrees,WindSpeedMPH,WindSpeedGustMPH,Humidity,HourlyPrecipIn,Conditions,Clouds,dailyrainin,SoftwareType,DateUTC
2013-01-15 00:06:00,24.0,20.0,30.41,WNW,284,1.0,-999.0,84,-99.99,,,0.00,weatherlink.com 1.10,2013-01-15 05:06:00,
2013-01-15 00:21:00,23.9,20.0,30.41,WNW,284,2.0,-999.0,84,-99.99,,,0.00,weatherlink.com 1.10,2013-01-15 05:21:00,
2013-01-15 00:36:00,23.9,20.0,30.41,WNW,284,1.0,-999.0,84,-99.99,,,0.00,weatherlink.com 1.10,2013-01-15 05:36:00,
2013-01-15 00:51:00,23.7,20.0,30.41,WNW,284,1.0,-999.0,84,-99.99,,,0.00,weatherlink.com 1.10,2013-01-15 05:51:00,
2013-01-15 01:07:00,23.6,20.0,30.42,WNW,284,1.0,-999.0,85,-99.99,,,0.00,weatherlink.com 1.10,2013-01-15 06:07:00,
2013-01-15 01:22:00,23.5,20.0,30.42,WNW,284,1.0,-999.0,86,-99.99,,,0.00,weatherlink.com 1.10,2013-01-15 06:22:00,
2013-01-15 01:37:00,23.3,20.0,30.42,WNW,284,4.0,-999.0,86,-99.99,,,0.00,weatherlink.com 1.10,2013-01-15 06:37:00,
2013-01-15 01:52:00,22.9,19.0,30.41,WNW,284,1.0,-999.0,86,-99.99,,,0.00,weatherlink.com 1.10,2013-01-15 06:52:00,
2013-01-15 02:07:00,22.8,19.0,30.42,WNW,284,2.0,-999.0,86,-99.99,,,0.00,weatherlink.com 1.10,2013-01-15 07:07:00,
2013-01-15 02:22:00,22.7,19.0,30.42,WNW,284,5.0,-999.0,86,-99.99,,,0.00,weatherlink.com 1.10,2013-01-15 07:22:00,
2013-01-15 02:37:00,22.5,19.0,30.43,WNW,284,1.0,-999.0,87,-99.99,,,0.00,weatherlink.com 1.10,2013-01-15 07:37:00,
2013-01-15 02:52:00,22.4,19.0,30.42,WNW,284,4.0,-999.0,87,-99.99,,,0.00,weatherlink.com 1.10,2013-01-15 07:52:00,
2013-01-15 03:07:00,22.3,19.0,30.41,WNW,284,5.0,-999.0,87,-99.99,,,0.00,weatherlink.com 1.10,2013-01-15 08:07:00,
2013-01-15 03:22:00,22.2,19.0,30.42,WNW,284,6.0,-999.0,87,-99.99,,,0.00,weatherlink.com 1.10,2013-01-15 08:22:00,
2013-01-15 03:37:00,22.2,19.0,30.42,WNW,284,5.0,-999.0,87,-99.99,,,0.00,weatherlink.com 1.10,2013-01-15 08:37:00,
2013-01-15 03:52:00,22.1,19.0,30.42,WNW,284,4.0,-999.0,87,-99.99,,,0.00,weatherlink.com 1.10,2013-01-15 08:52:00,
2013-01-15 04:07:00,22.0,19.0,30.41,WNW,284,5.0,-999.0,87,-99.99,,,0.00,weatherlink.com 1.10,2013-01-15 09:07:00,
2013-01-15 04:22:00,21.8,19.0,30.42,WNW,284,1.0,-999.0,88,-99.99,,,0.00,weatherlink.com 1.10,2013-01-15 09:22:00,
2013-01-15 04:38:00,21.6,19.0,30.41,WNW,284,2.0,-999.0,88,-99.99,,,0.00,weatherlink.com 1.10,2013-01-15 09:38:00,
2013-01-15 04:53:00,21.5,19.0,30.41,WNW,284,4.0,-999.0,88,-99.99,,,0.00,weatherlink.com 1.10,2013-01-15 09:53:00,
2013-01-15 05:23:00,21.3,18.0,30.42,WNW,284,5.0,-999.0,87,-99.99,,,0.00,weatherlink.com 1.10,2013-01-15 10:23:00,
2013-01-15 05:38:00,21.2,18.0,30.42,WNW,284,2.0,-999.0,87,-99.99,,,0.00,weatherlink.com 1.10,2013-01-15 10:38:00,
2013-01-15 05:53:00,21.1,18.0,30.43,WNW,284,5.0,-999.0,87,-99.99,,,0.00,weatherlink.com 1.10,2013-01-15 10:53:00,
2013-01-15 06:08:00,21.1,18.0,30.43,WNW,284,2.0,-999.0,87,-99.99,,,0.00,weatherlink.com 1.10,2013-01-15 11:08:00,
2013-01-15 06:23:00,21.1,18.0,30.44,WNW,284,2.0,-999.0,87,-99.99,,,0.00,weatherlink.com 1.10,2013-01-15 11:23:00,
2013-01-15 06:38:00,21.2,18.0,30.44,WNW,284,2.0,-999.0,87,-99.99,,,0.00,weatherlink.com 1.10,2013-01-15 11:38:00,
2013-01-15 06:53:00,21.2,18.0,30.44,WNW,284,0.0,-999.0,87,-99.99,,,0.00,weatherlink.com 1.10,2013-01-15 11:53:00,
2013-01-15 07:08:00,21.3,18.0,30.44,WNW,284,4.0,-999.0,87,-99.99,,,0.00,weatherlink.com 1.10,2013-01-15 12:08:00,
2013-01-15 07:23:00,21.3,18.0,30.43,WNW,284,1.0,-999.0,87,-99.99,,,0.00,weatherlink.com 1.10,2013-01-15 12:23:00,
2013-01-15 07:39:00,21.2,18.0,30.42,WNW,284,8.0,-999.0,87,-99.99,,,0.00,weatherlink.com 1.10,2013-01-15 12:39:00,
2013-01-15 07:54:00,21.2,18.0,30.42,WNW,284,5.0,-999.0,86,-99.99,,,0.00,weatherlink.com 1.10,2013-01-15 12:54:00,
2013-01-15 08:09:00,21.3,18.0,30.44,WNW,284,1.0,-999.0,87,-99.99,,,0.00,weatherlink.com 1.10,2013-01-15 13:09:00,
2013-01-15 08:24:00,21.2,18.0,30.44,WNW,284,1.0,-999.0,87,-99.99,,,0.00,weatherlink.com 1.10,2013-01-15 13:24:00,
2013-01-15 08:39:00,21.5,19.0,30.45,WNW,284,2.0,-999.0,88,-99.99,,,0.00,weatherlink.com 1.10,2013-01-15 13:39:00,
2013-01-15 08:54:00,22.1,19.0,30.45,WNW,284,2.0,-999.0,88,-99.99,,,0.00,weatherlink.com 1.10,2013-01-15 13:54:00,
2013-01-15 09:09:00,22.6,19.0,30.44,WNW,284,4.0,-999.0,86,-99.99,,,0.00,weatherlink.com 1.10,2013-01-15 14:09:00,
2013-01-15 09:24:00,23.2,19.0,30.45,WNW,284,7.0,-999.0,84,-99.99,,,0.00,weatherlink.com 1.10,2013-01-15 14:24:00,
2013-01-15 09:39:00,23.9,19.0,30.43,WNW,284,8.0,-999.0,81,-99.99,,,0.00,weatherlink.com 1.10,2013-01-15 14:39:00,
2013-01-15 09:55:00,24.2,19.0,30.42,WNW,284,12.0,-999.0,80,-99.99,,,0.00,weatherlink.com 1.10,2013-01-15 14:55:00,
2013-01-15 10:10:00,24.7,19.0,30.43,WNW,284,6.0,-999.0,79,-99.99,,,0.00,weatherlink.com 1.10,2013-01-15 15:10:00,
2013-01-15 10:25:00,25.1,19.0,30.41,WNW,284,8.0,-999.0,76,-99.99,,,0.00,weatherlink.com 1.10,2013-01-15 15:25:00,
2013-01-15 10:40:00,25.5,18.0,30.43,WNW,284,13.0,-999.0,73,-99.99,,,0.00,weatherlink.com 1.10,2013-01-15 15:40:00,
2013-01-15 10:55:00,26.1,18.0,30.44,WNW,284,9.0,-999.0,72,-99.99,,,0.00,weatherlink.com 1.10,2013-01-15 15:55:00,
2013-01-15 11:10:00,26.3,19.0,30.43,WNW,284,8.0,-999.0,73,-99.99,,,0.00,weatherlink.com 1.10,2013-01-15 16:10:00,
2013-01-15 11:25:00,26.6,18.0,30.43,WNW,284,9.0,-999.0,70,-99.99,,,0.00,weatherlink.com 1.10,2013-01-15 16:25:00,
2013-01-15 11:40:00,27.2,18.0,30.43,WNW,284,6.0,-999.0,69,-99.99,,,0.00,weatherlink.com 1.10,2013-01-15 16:40:00,
2013-01-15 11:55:00,27.7,18.0,30.42,WNW,284,11.0,-999.0,66,-99.99,,,0.00,weatherlink.com 1.10,2013-01-15 16:55:00,
2013-01-15 12:10:00,27.6,18.0,30.40,WNW,284,6.0,-999.0,67,-99.99,,,0.00,weatherlink.com 1.10,2013-01-15 17:10:00,
2013-01-15 12:25:00,27.8,18.0,30.38,NE,40,9.0,-999.0,66,-99.99,,,0.00,weatherlink.com 1.10,2013-01-15 17:25:00,
2013-01-15 12:41:00,28.3,19.0,30.34,NE,46,6.0,-999.0,67,-99.99,,,0.00,weatherlink.com 1.10,2013-01-15 17:41:00,
2013-01-15 12:56:00,28.4,18.0,30.36,NE,51,10.0,-999.0,66,-99.99,,,0.00,weatherlink.com 1.10,2013-01-15 17:56:00,
2013-01-15 13:11:00,28.5,18.0,30.36,East,101,5.0,-999.0,65,-99.99,,,0.00,weatherlink.com 1.10,2013-01-15 18:11:00,
2013-01-15 13:26:00,28.8,19.0,30.36,East,92,7.0,-999.0,66,-99.99,,,0.00,weatherlink.com 1.10,2013-01-15 18:26:00,
2013-01-15 13:41:00,28.7,19.0,30.36,ENE,77,10.0,-999.0,68,-99.99,,,0.00,weatherlink.com 1.10,2013-01-15 18:41:00,
2013-01-15 13:56:00,28.8,20.0,30.34,ENE,69,4.0,-999.0,69,-99.99,,,0.00,weatherlink.com 1.10,2013-01-15 18:56:00,
2013-01-15 14:11:00,28.9,20.0,30.32,ENE,58,7.0,-999.0,70,-99.99,,,0.00,weatherlink.com 1.10,2013-01-15 19:11:00,
2013-01-15 14:26:00,29.3,21.0,30.31,ENE,70,3.0,-999.0,70,-99.99,,,0.00,weatherlink.com 1.10,2013-01-15 19:26:00,
2013-01-15 14:41:00,29.3,21.0,30.31,ENE,70,8.0,-999.0,70,-99.99,,,0.00,weatherlink.com 1.10,2013-01-15 19:41:00,
2013-01-15 14:56:00,29.4,21.0,30.32,East,80,6.0,-999.0,70,-99.99,,,0.00,weatherlink.com 1.10,2013-01-15 19:56:00,
2013-01-15 15:11:00,29.6,21.0,30.32,ENE,65,6.0,-999.0,70,-99.99,,,0.00,weatherlink.com 1.10,2013-01-15 20:11:00,
2013-01-15 15:27:00,29.5,20.0,30.32,ENE,61,7.0,-999.0,69,-99.99,,,0.00,weatherlink.com 1.10,2013-01-15 20:27:00,
2013-01-15 15:42:00,29.5,20.0,30.31,ENE,59,7.0,-999.0,69,-99.99,,,0.00,weatherlink.com 1.10,2013-01-15 20:42:00,
2013-01-15 15:57:00,29.5,20.0,30.32,ENE,67,8.0,-999.0,69,-99.99,,,0.00,weatherlink.com 1.10,2013-01-15 20:57:00,
2013-01-15 16:12:00,29.6,21.0,30.32,ENE,61,6.0,-999.0,71,-99.99,,,0.00,weatherlink.com 1.10,2013-01-15 21:12:00,
2013-01-15 16:27:00,29.5,21.0,30.33,NE,55,6.0,-999.0,71,-99.99,,,0.00,weatherlink.com 1.10,2013-01-15 21:27:00,
2013-01-15 16:42:00,29.4,21.0,30.31,ENE,67,7.0,-999.0,72,-99.99,,,0.00,weatherlink.com 1.10,2013-01-15 21:42:00,
2013-01-15 16:57:00,29.4,21.0,30.30,ENE,64,7.0,-999.0,71,-99.99,,,0.00,weatherlink.com 1.10,2013-01-15 21:57:00,
2013-01-15 17:12:00,29.4,21.0,30.30,ENE,65,5.0,-999.0,72,-99.99,,,0.00,weatherlink.com 1.10,2013-01-15 22:12:00,
2013-01-15 17:27:00,29.3,22.0,30.30,ENE,68,6.0,-999.0,73,-99.99,,,0.00,weatherlink.com 1.10,2013-01-15 22:27:00,
2013-01-15 17:42:00,29.4,22.0,30.29,East,80,4.0,-999.0,73,-99.99,,,0.00,weatherlink.com 1.10,2013-01-15 22:42:00,
2013-01-15 17:57:00,29.4,22.0,30.29,ENE,65,7.0,-999.0,74,-99.99,,,0.00,weatherlink.com 1.10,2013-01-15 22:57:00,
2013-01-15 18:12:00,29.4,22.0,30.29,ENE,66,4.0,-999.0,75,-99.99,,,0.00,weatherlink.com 1.10,2013-01-15 23:12:00,
2013-01-15 18:28:00,29.5,23.0,30.29,ENE,57,4.0,-999.0,76,-99.99,,,0.00,weatherlink.com 1.10,2013-01-15 23:28:00,
2013-01-15 18:43:00,29.4,23.0,30.28,NE,40,7.0,-999.0,76,-99.99,,,0.00,weatherlink.com 1.10,2013-01-15 23:43:00,
2013-01-15 18:58:00,29.4,23.0,30.28,NE,37,3.0,-999.0,78,-99.99,,,0.00,weatherlink.com 1.10,2013-01-15 23:58:00,
2013-01-15 19:13:00,29.2,23.0,30.27,NE,51,5.0,-999.0,78,-99.99,,,0.00,weatherlink.com 1.10,2013-01-16 00:13:00,
2013-01-15 19:28:00,29.0,23.0,30.27,NE,38,8.0,-999.0,77,-99.99,,,0.00,weatherlink.com 1.10,2013-01-16 00:28:00,
2013-01-15 19:43:00,29.0,23.0,30.25,NE,36,9.0,-999.0,77,-99.99,,,0.00,weatherlink.com 1.10,2013-01-16 00:43:00,
2013-01-15 19:58:00,28.8,22.0,30.24,NE,55,5.0,-999.0,77,-99.99,,,0.00,weatherlink.com 1.10,2013-01-16 00:58:00,
2013-01-15 20:13:00,28.6,22.0,30.24,ENE,63,4.0,-999.0,77,-99.99,,,0.00,weatherlink.com 1.10,2013-01-16 01:13:00,
2013-01-15 20:28:00,28.6,23.0,30.24,ENE,61,5.0,-999.0,79,-99.99,,,0.00,weatherlink.com 1.10,2013-01-16 01:28:00,
2013-01-15 20:43:00,28.5,22.0,30.23,ENE,71,4.0,-999.0,78,-99.99,,,0.00,weatherlink.com 1.10,2013-01-16 01:43:00,
2013-01-15 20:58:00,28.5,23.0,30.23,ENE,69,5.0,-999.0,79,-99.99,,,0.00,weatherlink.com 1.10,2013-01-16 01:58:00,
2013-01-15 21:14:00,28.4,23.0,30.23,ENE,65,8.0,-999.0,80,-99.99,,,0.00,weatherlink.com 1.10,2013-01-16 02:14:00,
2013-01-15 21:29:00,28.3,23.0,30.21,ENE,59,7.0,-999.0,80,-99.99,,,0.00,weatherlink.com 1.10,2013-01-16 02:29:00,
2013-01-15 21:44:00,28.1,23.0,30.20,NE,51,4.0,-999.0,81,-99.99,,,0.00,weatherlink.com 1.10,2013-01-16 02:44:00,
2013-01-15 21:59:00,28.1,23.0,30.19,ENE,61,8.0,-999.0,82,-99.99,,,0.00,weatherlink.com 1.10,2013-01-16 02:59:00,
2013-01-15 22:14:00,28.0,23.0,30.19,ENE,67,6.0,-999.0,81,-99.99,,,0.00,weatherlink.com 1.10,2013-01-16 03:14:00,
2013-01-15 22:29:00,28.0,23.0,30.18,ENE,57,5.0,-999.0,81,-99.99,,,0.00,weatherlink.com 1.10,2013-01-16 03:29:00,
2013-01-15 22:44:00,27.9,23.0,30.16,NE,53,5.0,-999.0,83,-99.99,,,0.00,weatherlink.com 1.10,2013-01-16 03:44:00,
2013-01-15 22:59:00,27.8,23.0,30.16,NE,54,5.0,-999.0,83,-99.99,,,0.00,weatherlink.com 1.10,2013-01-16 03:59:00,
2013-01-15 23:14:00,27.7,24.0,30.18,ENE,58,5.0,-999.0,84,-99.99,,,0.00,weatherlink.com 1.10,2013-01-16 04:14:00,
2013-01-15 23:29:00,27.6,23.0,30.16,ENE,59,4.0,-999.0,84,-99.99,,,0.00,weatherlink.com 1.10,2013-01-16 04:29:00,
2013-01-15 23:44:00,27.4,23.0,30.14,ENE,63,4.0,-999.0,84,-99.99,,,0.00,weatherlink.com 1.10,2013-01-16 04:44:00,
2013-01-15 23:59:00,27.3,23.0,30.14,ENE,64,4.0,-999.0,84,-99.99,,,0.00,weatherlink.com 1.10,2013-01-16 04:59:00,